The Dalles, WA

3:07 PM PDT on April 23, 2017 (GMT -0700)
Columbia Gorge Regional-The Dalles

Weather History for KDLS - May, 2013

Change the Weather History Date:

Wednesday, May 1, 2013

  Actual Average Record
Temperature  
Mean Temperature 51 °F -  
Max Temperature 70 °F 71 °F 91 °F (1998)
Min Temperature 32 °F 44 °F 28 °F (1954)
Degree Days  
Heating Degree Days 14    
Growing Degree Days 1 (Base 50)    
Moisture  
Dew Point 27 °F    
Average Humidity 45    
Maximum Humidity 82    
Minimum Humidity 15    
Precipitation  
Precipitation 0.00 in - - ()
Sea Level Pressure  
Sea Level Pressure 30.52 in    
Wind  
Wind Speed 3 mph (ENE)    
Max Wind Speed 8 mph    
Max Gust Speed 16 mph    
Visibility 10 miles    
Events      
Averages and records for this station are not official NWS values.
T = Trace of Precipitation, MM = Missing Value Source: NWS Daily Summary

Daily Weather History Graph

Daily Weather History Graph

Search for Another Location

Airport or City:

Trip Planner

Search our weather history database for the weather conditions in past years. The results will help you decide how hot, cold, wet, or windy it might be!

Date:

Astronomy

May. 01, 2013 Rise Set
Actual Time 5:52 AM PDT 8:12 PM PDT
Civil Twilight 5:19 AM PDT 8:45 PM PDT
Nautical Twilight 4:38 AM PDT 9:26 PM PDT
Astronomical Twilight 3:52 AM PDT 10:12 PM PDT
Moon 1:25 AM PDT (5/1) 11:36 AM PDT (5/1)
Length of Visible Light 15h 26m
Length of Day
14h 20m
Waning Gibbous, 58% of the Moon is Illuminated
May 1
Waning Gibbous
May 2
Last Quarter
May 9
New
May 17
First Quarter
May 24
Full

Hourly Weather History & Observations

Time (PDT) Temp. Windchill Dew Point Humidity Pressure Visibility Wind Dir Wind Speed Gust Speed Precip Events Conditions
12:53 AM 41.0 °F 39.0 °F 30.0 °F 65% 30.43 in 10.0 mi Variable 3.5 mph - N/A   Clear
1:53 AM 37.9 °F - 30.0 °F 73% 30.44 in 10.0 mi Calm Calm - N/A   Clear
2:53 AM 39.0 °F - 30.0 °F 70% 30.46 in 10.0 mi Calm Calm - N/A   Clear
3:53 AM 37.0 °F - 30.0 °F 76% 30.48 in 10.0 mi Calm Calm - N/A   Clear
4:53 AM 35.1 °F - 30.0 °F 82% 30.50 in 10.0 mi Calm Calm - N/A   Clear
5:53 AM 32.0 °F 26.4 °F 27.0 °F 82% 30.53 in 10.0 mi ESE 5.8 mph - N/A   Clear
6:53 AM 36.0 °F - 30.0 °F 79% 30.55 in 10.0 mi Calm Calm - N/A   Clear
8:53 AM 44.1 °F - 30.9 °F 60% 30.58 in 10.0 mi Calm Calm - N/A   Clear
9:53 AM 48.9 °F - 32.0 °F 52% 30.57 in 10.0 mi SSE 4.6 mph - N/A   Clear
10:53 AM 55.0 °F - 28.9 °F 37% 30.57 in 10.0 mi Calm Calm - N/A   Clear
11:53 AM 60.1 °F - 27.0 °F 28% 30.55 in 10.0 mi Variable 6.9 mph - N/A   Clear
12:53 PM 63.0 °F - 28.9 °F 28% 30.53 in 10.0 mi ENE 6.9 mph 16.1 mph N/A   Clear
1:53 PM 66.0 °F - 27.0 °F 23% 30.53 in 10.0 mi ENE 8.1 mph - N/A   Clear
2:53 PM 68.0 °F - 25.0 °F 20% 30.52 in 10.0 mi NNE 8.1 mph - N/A   Clear
3:53 PM 70.0 °F - 25.0 °F 18% 30.51 in 10.0 mi NNE 8.1 mph - N/A   Clear
4:53 PM 70.0 °F - 21.0 °F 16% 30.50 in 10.0 mi NNE 6.9 mph - N/A   Clear
5:53 PM 70.0 °F - 19.9 °F 15% 30.49 in 10.0 mi ENE 6.9 mph - N/A   Clear
6:53 PM 66.9 °F - 17.1 °F 15% 30.49 in 10.0 mi ENE 6.9 mph - N/A   Clear
7:53 PM 60.1 °F - 25.0 °F 26% 30.49 in 10.0 mi East 5.8 mph - N/A   Clear
8:53 PM 55.9 °F - 24.1 °F 29% 30.52 in 10.0 mi ESE 4.6 mph - N/A   Clear
9:53 PM 52.0 °F - 28.9 °F 41% 30.54 in 10.0 mi Calm Calm - N/A   Clear
10:53 PM 48.9 °F - 30.0 °F 48% 30.55 in 10.0 mi Calm Calm - N/A   Clear
11:53 PM 45.0 °F 42.6 °F 28.0 °F 52% 30.56 in 10.0 mi East 4.6 mph - N/A   Clear